Time,TemperatureF,DewpointF,PressureIn,WindDirection,WindDirectionDegrees,WindSpeedMPH,WindSpeedGustMPH,Humidity,HourlyPrecipIn,Conditions,Clouds,dailyrainin,SoftwareType,DateUTC
2013-08-14 00:02:00,83.1,77.0,29.97,NW,304,2.0,4.0,82,0.00,,,0.01,meteohub,2013-08-14 04:02:00,
2013-08-14 00:07:00,83.1,77.0,29.96,NW,304,2.0,3.0,82,0.00,,,0.00,meteohub,2013-08-14 04:07:00,
2013-08-14 00:12:00,83.1,77.0,29.96,NW,304,1.0,3.0,82,0.00,,,0.00,meteohub,2013-08-14 04:12:00,
2013-08-14 00:17:00,82.9,76.8,29.96,NW,304,3.0,3.0,82,0.00,,,0.00,meteohub,2013-08-14 04:17:00,
2013-08-14 00:22:00,82.9,76.8,29.96,NW,304,1.0,3.0,82,0.00,,,0.00,meteohub,2013-08-14 04:22:00,
2013-08-14 00:27:00,82.8,76.6,29.96,WNW,303,3.0,3.0,82,0.00,,,0.00,meteohub,2013-08-14 04:27:00,
2013-08-14 00:32:00,82.8,76.6,29.96,WNW,303,0.0,3.0,82,0.00,,,0.00,meteohub,2013-08-14 04:32:00,
2013-08-14 00:37:00,82.8,76.6,29.96,WNW,303,0.0,3.0,82,0.00,,,0.00,meteohub,2013-08-14 04:37:00,
2013-08-14 00:42:00,82.8,77.0,29.96,WNW,303,0.0,3.0,83,0.00,,,0.00,meteohub,2013-08-14 04:42:00,
2013-08-14 00:47:00,82.8,77.0,29.96,WNW,303,0.0,2.0,83,0.00,,,0.00,meteohub,2013-08-14 04:47:00,
2013-08-14 00:52:00,82.8,77.0,29.96,WNW,303,0.0,1.0,83,0.00,,,0.00,meteohub,2013-08-14 04:52:00,
2013-08-14 00:57:00,82.6,76.8,29.96,WNW,303,0.0,1.0,83,0.00,,,0.00,meteohub,2013-08-14 04:57:00,
2013-08-14 01:02:00,82.4,76.6,29.96,WNW,303,0.0,1.0,83,0.00,,,0.00,meteohub,2013-08-14 05:02:00,
2013-08-14 01:07:00,82.4,77.0,29.96,WNW,303,0.0,1.0,84,0.00,,,0.00,meteohub,2013-08-14 05:07:00,
2013-08-14 01:12:00,82.2,76.8,29.96,WNW,303,1.0,1.0,84,0.00,,,0.00,meteohub,2013-08-14 05:12:00,
2013-08-14 01:17:00,82.0,77.0,29.96,WNW,303,0.0,1.0,85,0.00,,,0.00,meteohub,2013-08-14 05:17:00,
2013-08-14 01:22:00,82.0,77.0,29.95,WNW,303,1.0,1.0,85,0.00,,,0.00,meteohub,2013-08-14 05:22:00,
2013-08-14 01:27:00,82.0,77.0,29.95,WNW,303,2.0,2.0,85,0.00,,,0.00,meteohub,2013-08-14 05:27:00,
2013-08-14 01:32:00,82.2,77.2,29.95,WNW,303,0.0,2.0,85,0.00,,,0.00,meteohub,2013-08-14 05:32:00,
2013-08-14 01:37:00,82.0,77.0,29.95,WNW,303,0.0,2.0,85,0.00,,,0.00,meteohub,2013-08-14 05:37:00,
2013-08-14 01:42:00,82.0,77.0,29.95,WNW,302,0.0,2.0,85,0.00,,,0.00,meteohub,2013-08-14 05:42:00,
2013-08-14 01:47:00,82.0,77.0,29.95,WNW,302,1.0,2.0,85,0.00,,,0.00,meteohub,2013-08-14 05:47:00,
2013-08-14 01:52:00,82.0,77.0,29.95,SSW,205,3.0,3.0,85,0.00,,,0.00,meteohub,2013-08-14 05:52:00,
2013-08-14 01:57:00,81.9,76.8,29.96,SSW,194,3.0,3.0,85,0.00,,,0.00,meteohub,2013-08-14 05:57:00,
2013-08-14 02:02:00,81.9,76.8,29.95,SSW,194,1.0,3.0,85,0.00,,,0.00,meteohub,2013-08-14 06:02:00,
2013-08-14 02:07:00,81.9,77.2,29.95,SSW,194,0.0,3.0,86,0.00,,,0.00,meteohub,2013-08-14 06:07:00,
2013-08-14 02:12:00,81.9,77.2,29.95,SSW,194,0.0,3.0,86,0.00,,,0.00,meteohub,2013-08-14 06:12:00,
2013-08-14 02:17:00,81.7,77.0,29.95,SSW,194,2.0,3.0,86,0.00,,,0.00,meteohub,2013-08-14 06:17:00,
2013-08-14 02:22:00,81.3,77.0,29.95,SSW,194,0.0,3.0,87,0.00,,,0.00,meteohub,2013-08-14 06:22:00,
2013-08-14 02:27:00,81.3,77.0,29.94,SSW,194,0.0,3.0,87,0.00,,,0.00,meteohub,2013-08-14 06:27:00,
2013-08-14 02:32:00,81.3,77.0,29.94,SSW,194,0.0,3.0,87,0.00,,,0.00,meteohub,2013-08-14 06:32:00,
2013-08-14 02:37:00,81.1,76.8,29.94,SSW,194,0.0,1.0,87,0.00,,,0.00,meteohub,2013-08-14 06:37:00,
2013-08-14 02:42:00,81.1,76.8,29.94,SSW,194,0.0,1.0,87,0.00,,,0.00,meteohub,2013-08-14 06:42:00,
2013-08-14 02:47:00,81.1,76.8,29.94,SSW,194,0.0,1.0,87,0.00,,,0.00,meteohub,2013-08-14 06:47:00,
2013-08-14 02:52:00,81.1,77.2,29.94,SSW,194,0.0,1.0,88,0.00,,,0.00,meteohub,2013-08-14 06:52:00,
2013-08-14 03:02:00,81.1,77.2,29.94,SSW,194,0.0,1.0,88,0.00,,,0.00,meteohub,2013-08-14 07:02:00,
2013-08-14 03:07:00,81.1,77.2,29.93,SSW,194,0.0,1.0,88,0.00,,,0.00,meteohub,2013-08-14 07:07:00,
2013-08-14 03:12:00,81.1,77.2,29.93,SSW,194,0.0,0.0,88,0.00,,,0.00,meteohub,2013-08-14 07:12:00,
2013-08-14 03:17:00,81.1,77.2,29.93,SSW,194,0.0,0.0,88,0.00,,,0.00,meteohub,2013-08-14 07:17:00,
2013-08-14 03:22:00,81.1,77.2,29.92,SSW,194,0.0,0.0,88,0.00,,,0.00,meteohub,2013-08-14 07:22:00,
2013-08-14 03:27:00,81.1,77.2,29.93,SSW,194,0.0,0.0,88,0.00,,,0.00,meteohub,2013-08-14 07:27:00,
2013-08-14 03:32:00,81.1,77.2,29.93,SSW,194,0.0,1.0,88,0.00,,,0.00,meteohub,2013-08-14 07:32:00,
2013-08-14 03:37:00,81.1,77.2,29.92,SSW,194,0.0,1.0,88,0.00,,,0.00,meteohub,2013-08-14 07:37:00,
2013-08-14 03:42:00,81.1,77.2,29.92,SSW,194,0.0,1.0,88,0.00,,,0.00,meteohub,2013-08-14 07:42:00,
2013-08-14 03:47:00,81.1,77.5,29.92,SSW,194,0.0,1.0,89,0.00,,,0.00,meteohub,2013-08-14 07:47:00,
2013-08-14 03:52:00,81.0,77.0,29.92,SSW,194,0.0,1.0,88,0.00,,,0.00,meteohub,2013-08-14 07:52:00,
2013-08-14 03:57:00,81.0,77.0,29.92,SSW,194,0.0,1.0,88,0.00,,,0.00,meteohub,2013-08-14 07:57:00,
2013-08-14 04:02:00,81.1,77.2,29.93,SSW,194,1.0,1.0,88,0.00,,,0.00,meteohub,2013-08-14 08:02:00,
2013-08-14 04:07:00,81.3,77.4,29.92,SSW,194,1.0,3.0,88,0.00,,,0.00,meteohub,2013-08-14 08:07:00,
2013-08-14 04:12:00,81.7,77.7,29.92,SSW,194,1.0,3.0,88,0.00,,,0.00,meteohub,2013-08-14 08:12:00,
2013-08-14 04:17:00,81.9,77.5,29.92,SSW,194,0.0,3.0,87,0.00,,,0.00,meteohub,2013-08-14 08:17:00,
2013-08-14 04:22:00,81.7,77.4,29.92,SSW,194,0.0,2.0,87,0.00,,,0.00,meteohub,2013-08-14 08:22:00,
2013-08-14 04:27:00,81.7,77.4,29.92,SSW,194,0.0,2.0,87,0.00,,,0.00,meteohub,2013-08-14 08:27:00,
2013-08-14 04:32:00,81.5,77.5,29.92,SSW,194,2.0,2.0,88,0.00,,,0.00,meteohub,2013-08-14 08:32:00,
2013-08-14 04:37:00,81.7,77.7,29.92,South,179,4.0,4.0,88,0.00,,,0.00,meteohub,2013-08-14 08:37:00,
2013-08-14 04:42:00,81.9,77.9,29.92,South,175,1.0,5.0,88,0.00,,,0.00,meteohub,2013-08-14 08:42:00,
2013-08-14 04:47:00,81.9,77.5,29.92,South,186,2.0,5.0,87,0.00,,,0.00,meteohub,2013-08-14 08:47:00,
2013-08-14 04:52:00,82.0,77.0,29.91,SSW,193,2.0,8.0,85,0.00,,,0.00,meteohub,2013-08-14 08:52:00,
2013-08-14 04:57:00,82.0,77.0,29.92,SSW,194,2.0,9.0,85,0.00,,,0.00,meteohub,2013-08-14 08:57:00,
2013-08-14 05:02:00,81.9,76.8,29.92,SSE,157,2.0,9.0,85,0.00,,,0.00,meteohub,2013-08-14 09:02:00,
2013-08-14 05:07:00,81.7,76.6,29.92,SSE,163,4.0,5.0,85,0.00,,,0.00,meteohub,2013-08-14 09:07:00,
2013-08-14 05:12:00,81.3,76.1,29.92,South,182,1.0,5.0,84,0.00,,,0.00,meteohub,2013-08-14 09:12:00,
2013-08-14 05:17:00,81.3,76.1,29.92,South,182,0.0,5.0,84,0.00,,,0.00,meteohub,2013-08-14 09:17:00,
2013-08-14 05:22:00,81.1,75.6,29.92,South,182,0.0,5.0,83,0.00,,,0.00,meteohub,2013-08-14 09:22:00,
2013-08-14 05:27:00,81.1,75.9,29.92,South,182,0.0,3.0,84,0.00,,,0.00,meteohub,2013-08-14 09:27:00,
2013-08-14 05:32:00,81.1,75.9,29.92,South,182,0.0,0.0,84,0.00,,,0.00,meteohub,2013-08-14 09:32:00,
2013-08-14 05:37:00,81.1,75.9,29.92,South,182,0.0,0.0,84,0.00,,,0.00,meteohub,2013-08-14 09:37:00,
2013-08-14 05:42:00,81.1,75.9,29.91,South,182,1.0,0.0,84,0.00,,,0.00,meteohub,2013-08-14 09:42:00,
2013-08-14 05:47:00,81.0,75.7,29.92,South,182,0.0,1.0,84,0.00,,,0.00,meteohub,2013-08-14 09:47:00,
2013-08-14 05:52:00,80.8,75.2,29.92,South,182,0.0,1.0,83,0.00,,,0.00,meteohub,2013-08-14 09:52:00,
2013-08-14 05:57:00,80.8,75.2,29.92,South,182,1.0,1.0,83,0.00,,,0.00,meteohub,2013-08-14 09:57:00,
2013-08-14 06:02:00,80.6,75.0,29.92,South,182,0.0,2.0,83,0.00,,,0.00,meteohub,2013-08-14 10:02:00,
2013-08-14 06:07:00,80.6,75.0,29.92,South,182,0.0,2.0,83,0.00,,,0.00,meteohub,2013-08-14 10:07:00,
2013-08-14 06:12:00,80.4,74.8,29.92,South,182,0.0,2.0,83,0.00,,,0.00,meteohub,2013-08-14 10:12:00,
2013-08-14 06:17:00,80.2,74.7,29.91,South,182,0.0,1.0,83,0.00,,,0.00,meteohub,2013-08-14 10:17:00,
2013-08-14 06:22:00,80.2,75.0,29.91,South,182,0.0,1.0,84,0.00,,,0.00,meteohub,2013-08-14 10:22:00,
2013-08-14 06:27:00,80.1,74.8,29.92,South,182,0.0,3.0,84,0.00,,,0.00,meteohub,2013-08-14 10:27:00,
2013-08-14 06:32:00,80.1,75.2,29.92,South,182,0.0,3.0,85,0.00,,,0.00,meteohub,2013-08-14 10:32:00,
2013-08-14 06:37:00,79.9,75.4,29.92,South,182,0.0,2.0,86,0.00,,,0.00,meteohub,2013-08-14 10:37:00,
2013-08-14 06:42:00,79.5,75.0,29.92,South,182,0.0,1.0,86,0.00,,,0.00,meteohub,2013-08-14 10:42:00,
2013-08-14 06:47:00,79.3,74.8,29.92,South,182,0.0,1.0,86,0.00,,,0.00,meteohub,2013-08-14 10:47:00,
2013-08-14 06:52:00,79.3,74.8,29.92,South,182,0.0,1.0,86,0.00,,,0.00,meteohub,2013-08-14 10:52:00,
2013-08-14 06:57:00,79.3,74.8,29.92,South,182,0.0,1.0,86,0.00,,,0.00,meteohub,2013-08-14 10:57:00,
2013-08-14 07:02:00,79.3,74.8,29.92,South,182,0.0,1.0,86,0.00,,,0.00,meteohub,2013-08-14 11:02:00,
2013-08-14 07:07:00,79.3,74.8,29.92,South,182,0.0,2.0,86,0.00,,,0.00,meteohub,2013-08-14 11:07:00,
2013-08-14 07:12:00,79.3,74.8,29.92,South,182,0.0,2.0,86,0.00,,,0.00,meteohub,2013-08-14 11:12:00,
2013-08-14 07:17:00,79.3,75.2,29.93,South,182,0.0,1.0,87,0.00,,,0.00,meteohub,2013-08-14 11:17:00,
2013-08-14 07:22:00,79.3,75.2,29.93,South,182,0.0,0.0,87,0.00,,,0.00,meteohub,2013-08-14 11:22:00,
2013-08-14 07:27:00,79.3,75.2,29.93,South,182,0.0,0.0,87,0.00,,,0.00,meteohub,2013-08-14 11:27:00,
2013-08-14 07:32:00,79.5,75.4,29.93,South,182,0.0,0.0,87,0.00,,,0.00,meteohub,2013-08-14 11:32:00,
2013-08-14 07:37:00,79.9,75.7,29.93,South,182,0.0,0.0,87,0.00,,,0.00,meteohub,2013-08-14 11:37:00,
2013-08-14 07:42:00,80.1,75.9,29.94,South,182,0.0,0.0,87,0.00,,,0.00,meteohub,2013-08-14 11:42:00,
2013-08-14 07:47:00,80.2,76.1,29.94,South,182,0.0,0.0,87,0.00,,,0.00,meteohub,2013-08-14 11:47:00,
2013-08-14 07:52:00,80.8,76.5,29.94,South,182,0.0,0.0,87,0.00,,,0.00,meteohub,2013-08-14 11:52:00,
2013-08-14 07:57:00,81.1,76.5,29.94,South,182,0.0,0.0,86,0.00,,,0.00,meteohub,2013-08-14 11:57:00,
2013-08-14 08:02:00,81.5,76.8,29.94,South,182,0.0,0.0,86,0.00,,,0.00,meteohub,2013-08-14 12:02:00,
2013-08-14 08:07:00,81.9,76.5,29.94,South,182,1.0,1.0,84,0.00,,,0.00,meteohub,2013-08-14 12:07:00,
2013-08-14 08:12:00,81.9,76.5,29.94,South,182,1.0,2.0,84,0.00,,,0.00,meteohub,2013-08-14 12:12:00,
2013-08-14 08:22:00,82.6,76.5,29.94,South,181,4.0,4.0,82,0.00,,,0.00,meteohub,2013-08-14 12:22:00,
2013-08-14 08:27:00,82.8,76.6,29.94,South,182,1.0,5.0,82,0.00,,,0.00,meteohub,2013-08-14 12:27:00,
2013-08-14 08:32:00,83.1,77.0,29.94,South,182,0.0,5.0,82,0.00,,,0.00,meteohub,2013-08-14 12:32:00,
2013-08-14 08:37:00,83.7,77.5,29.94,South,179,1.0,4.0,82,0.00,,,0.00,meteohub,2013-08-14 12:37:00,
2013-08-14 08:42:00,84.0,77.9,29.94,South,179,3.0,4.0,82,0.00,,,0.00,meteohub,2013-08-14 12:42:00,
2013-08-14 08:52:00,84.7,77.9,29.94,South,188,3.0,4.0,80,0.00,,,0.00,meteohub,2013-08-14 12:52:00,
2013-08-14 08:57:00,85.1,78.3,29.94,South,187,0.0,4.0,80,0.00,,,0.00,meteohub,2013-08-14 12:57:00,
2013-08-14 09:02:00,85.5,78.3,29.94,South,169,1.0,4.0,79,0.00,,,0.00,meteohub,2013-08-14 13:02:00,
2013-08-14 09:07:00,85.5,78.3,29.94,SSE,163,2.0,4.0,79,0.00,,,0.00,meteohub,2013-08-14 13:07:00,
2013-08-14 09:12:00,85.8,78.6,29.94,SW,215,1.0,4.0,79,0.00,,,0.00,meteohub,2013-08-14 13:12:00,
2013-08-14 09:17:00,85.6,77.9,29.94,SSW,198,2.0,7.0,78,0.00,,,0.00,meteohub,2013-08-14 13:17:00,
2013-08-14 09:22:00,85.6,77.5,29.94,SSE,166,3.0,7.0,77,0.00,,,0.00,meteohub,2013-08-14 13:22:00,
2013-08-14 09:27:00,86.0,77.9,29.94,SE,126,2.0,7.0,77,0.00,,,0.00,meteohub,2013-08-14 13:27:00,
2013-08-14 09:32:00,86.2,78.4,29.94,SSW,201,4.0,7.0,78,0.00,,,0.00,meteohub,2013-08-14 13:32:00,
2013-08-14 09:37:00,86.0,78.3,29.94,SSW,209,7.0,7.0,78,0.00,,,0.00,meteohub,2013-08-14 13:37:00,
2013-08-14 09:42:00,85.5,77.0,29.94,SW,226,3.0,12.0,76,0.00,,,0.00,meteohub,2013-08-14 13:42:00,
2013-08-14 09:47:00,85.5,77.4,29.94,South,190,4.0,12.0,77,0.00,,,0.00,meteohub,2013-08-14 13:47:00,
2013-08-14 09:52:00,85.6,77.5,29.94,South,184,5.0,12.0,77,0.00,,,0.00,meteohub,2013-08-14 13:52:00,
2013-08-14 10:02:00,86.4,77.5,29.94,WSW,244,6.0,8.0,75,0.00,,,0.00,meteohub,2013-08-14 14:02:00,
2013-08-14 10:07:00,86.5,76.8,29.94,WSW,244,5.0,10.0,73,0.00,,,0.00,meteohub,2013-08-14 14:07:00,
2013-08-14 10:12:00,87.1,77.7,29.94,West,269,7.0,10.0,74,0.00,,,0.00,meteohub,2013-08-14 14:12:00,
2013-08-14 10:17:00,86.5,77.7,29.94,West,260,2.0,10.0,75,0.00,,,0.00,meteohub,2013-08-14 14:17:00,
2013-08-14 10:22:00,86.2,77.0,29.94,West,265,7.0,9.0,74,0.00,,,0.00,meteohub,2013-08-14 14:22:00,
2013-08-14 10:27:00,86.0,77.9,29.94,West,275,5.0,9.0,77,0.00,,,0.00,meteohub,2013-08-14 14:27:00,
2013-08-14 10:32:00,85.6,77.5,29.94,West,265,1.0,9.0,77,0.00,,,0.00,meteohub,2013-08-14 14:32:00,
2013-08-14 10:37:00,85.3,77.2,29.94,West,261,5.0,9.0,77,0.00,,,0.00,meteohub,2013-08-14 14:37:00,
2013-08-14 10:42:00,85.3,77.2,29.94,West,261,5.0,9.0,77,0.00,,,0.00,meteohub,2013-08-14 14:42:00,
2013-08-14 10:47:00,85.3,77.7,29.95,WSW,254,4.0,8.0,78,0.00,,,0.00,meteohub,2013-08-14 14:47:00,
2013-08-14 10:52:00,85.3,76.8,29.95,WNW,294,2.0,8.0,76,0.00,,,0.00,meteohub,2013-08-14 14:52:00,
2013-08-14 10:57:00,85.8,77.0,29.94,WNW,283,4.0,8.0,75,0.00,,,0.00,meteohub,2013-08-14 14:57:00,
2013-08-14 11:02:00,86.2,75.7,29.94,SSW,194,7.0,10.0,71,0.00,,,0.00,meteohub,2013-08-14 15:02:00,
2013-08-14 11:07:00,86.5,75.6,29.94,West,269,8.0,11.0,70,0.00,,,0.00,meteohub,2013-08-14 15:07:00,
2013-08-14 11:12:00,87.1,76.1,29.94,SW,222,4.0,11.0,70,0.00,,,0.00,meteohub,2013-08-14 15:12:00,
2013-08-14 11:17:00,87.3,75.4,29.94,SW,235,3.0,11.0,68,0.00,,,0.00,meteohub,2013-08-14 15:17:00,
2013-08-14 11:22:00,87.4,75.9,29.94,WSW,246,6.0,11.0,69,0.00,,,0.00,meteohub,2013-08-14 15:22:00,
2013-08-14 11:32:00,87.8,75.9,29.94,South,177,3.0,12.0,68,0.00,,,0.00,meteohub,2013-08-14 15:32:00,
2013-08-14 11:37:00,88.7,76.8,29.94,WNW,293,7.0,12.0,68,0.00,,,0.00,meteohub,2013-08-14 15:37:00,
2013-08-14 11:42:00,88.2,76.3,29.95,WSW,240,4.0,11.0,68,0.00,,,0.00,meteohub,2013-08-14 15:42:00,
2013-08-14 11:47:00,88.2,76.6,29.94,WSW,252,7.0,10.0,69,0.00,,,0.00,meteohub,2013-08-14 15:47:00,
2013-08-14 11:52:00,87.6,75.7,29.95,WSW,251,3.0,11.0,68,0.00,,,0.00,meteohub,2013-08-14 15:52:00,
2013-08-14 11:57:00,87.6,75.7,29.94,SW,229,5.0,12.0,68,0.00,,,0.00,meteohub,2013-08-14 15:57:00,
2013-08-14 12:02:00,88.2,76.3,29.94,West,269,5.0,12.0,68,0.00,,,0.00,meteohub,2013-08-14 16:02:00,
2013-08-14 12:07:00,88.5,76.6,29.94,WSW,243,6.0,10.0,68,0.00,,,0.00,meteohub,2013-08-14 16:07:00,
2013-08-14 12:12:00,88.9,77.0,29.94,West,259,6.0,10.0,68,0.00,,,0.00,meteohub,2013-08-14 16:12:00,
2013-08-14 12:17:00,88.5,76.6,29.94,WSW,258,10.0,10.0,68,0.00,,,0.00,meteohub,2013-08-14 16:17:00,
2013-08-14 12:22:00,87.4,75.6,29.94,SSW,192,4.0,12.0,68,0.00,,,0.00,meteohub,2013-08-14 16:22:00,
2013-08-14 12:27:00,87.1,75.7,29.94,SSW,208,6.0,12.0,69,0.00,,,0.00,meteohub,2013-08-14 16:27:00,
2013-08-14 12:37:00,88.3,75.6,29.94,West,261,6.0,10.0,66,0.00,,,0.00,meteohub,2013-08-14 16:37:00,
2013-08-14 12:42:00,88.2,75.4,29.94,WSW,246,8.0,14.0,66,0.00,,,0.00,meteohub,2013-08-14 16:42:00,
2013-08-14 12:47:00,88.5,76.6,29.94,SSW,201,7.0,14.0,68,0.00,,,0.00,meteohub,2013-08-14 16:47:00,
2013-08-14 12:52:00,88.3,75.9,29.94,WSW,255,7.0,14.0,67,0.00,,,0.00,meteohub,2013-08-14 16:52:00,
2013-08-14 13:02:00,89.1,77.2,29.93,WSW,239,8.0,14.0,68,0.00,,,0.00,meteohub,2013-08-14 17:02:00,
2013-08-14 13:07:00,88.9,75.6,29.93,SW,227,10.0,11.0,65,0.00,,,0.00,meteohub,2013-08-14 17:07:00,
2013-08-14 13:12:00,88.3,75.0,29.93,West,275,3.0,12.0,65,0.00,,,0.00,meteohub,2013-08-14 17:12:00,
2013-08-14 13:17:00,88.3,75.0,29.93,WSW,242,4.0,12.0,65,0.00,,,0.00,meteohub,2013-08-14 17:17:00,
2013-08-14 13:22:00,88.7,75.4,29.93,West,273,5.0,12.0,65,0.00,,,0.00,meteohub,2013-08-14 17:22:00,
2013-08-14 13:27:00,88.9,76.1,29.93,SW,214,5.0,10.0,66,0.00,,,0.00,meteohub,2013-08-14 17:27:00,
2013-08-14 13:32:00,88.9,76.1,29.93,West,269,6.0,14.0,66,0.00,,,0.00,meteohub,2013-08-14 17:32:00,
2013-08-14 13:42:00,89.2,75.9,29.92,WSW,240,5.0,14.0,65,0.00,,,0.00,meteohub,2013-08-14 17:42:00,
2013-08-14 13:47:00,89.1,75.2,29.92,WSW,248,8.0,12.0,64,0.00,,,0.00,meteohub,2013-08-14 17:47:00,
2013-08-14 13:52:00,88.9,76.1,29.92,WSW,243,6.0,16.0,66,0.00,,,0.00,meteohub,2013-08-14 17:52:00,
2013-08-14 14:02:00,88.9,76.5,29.92,WSW,254,4.0,16.0,67,0.00,,,0.00,meteohub,2013-08-14 18:02:00,
2013-08-14 14:07:00,90.0,77.0,29.92,WSW,251,6.0,14.0,66,0.00,,,0.00,meteohub,2013-08-14 18:07:00,
2013-08-14 14:12:00,89.4,76.6,29.92,SW,232,5.0,14.0,66,0.00,,,0.00,meteohub,2013-08-14 18:12:00,
2013-08-14 14:22:00,89.1,76.3,29.92,West,263,8.0,16.0,66,0.00,,,0.00,meteohub,2013-08-14 18:22:00,
2013-08-14 14:32:00,89.4,75.2,29.92,WSW,247,6.0,13.0,63,0.00,,,0.00,meteohub,2013-08-14 18:32:00,
2013-08-14 14:37:00,89.1,75.7,29.92,West,273,7.0,14.0,65,0.00,,,0.00,meteohub,2013-08-14 18:37:00,
2013-08-14 14:42:00,89.2,76.5,29.91,WNW,296,7.0,14.0,66,0.00,,,0.00,meteohub,2013-08-14 18:42:00,
2013-08-14 14:47:00,89.4,76.1,29.91,West,276,6.0,14.0,65,0.00,,,0.00,meteohub,2013-08-14 18:47:00,
2013-08-14 14:52:00,89.1,76.3,29.91,SSW,213,4.0,12.0,66,0.00,,,0.00,meteohub,2013-08-14 18:52:00,
2013-08-14 14:57:00,89.2,75.9,29.91,WNW,300,6.0,13.0,65,0.00,,,0.00,meteohub,2013-08-14 18:57:00,
2013-08-14 15:07:00,89.1,77.5,29.91,WNW,291,9.0,14.0,69,0.00,,,0.00,meteohub,2013-08-14 19:07:00,
2013-08-14 15:12:00,88.5,75.7,29.91,West,268,6.0,14.0,66,0.00,,,0.00,meteohub,2013-08-14 19:12:00,
2013-08-14 15:22:00,88.2,75.7,29.91,West,261,10.0,18.0,67,0.00,,,0.00,meteohub,2013-08-14 19:22:00,
2013-08-14 15:27:00,88.3,75.9,29.90,WSW,254,7.0,18.0,67,0.00,,,0.00,meteohub,2013-08-14 19:27:00,
2013-08-14 15:37:00,88.2,75.7,29.90,West,267,6.0,15.0,67,0.00,,,0.00,meteohub,2013-08-14 19:37:00,
2013-08-14 15:42:00,88.3,75.9,29.90,West,269,9.0,15.0,67,0.00,,,0.00,meteohub,2013-08-14 19:42:00,
2013-08-14 15:47:00,88.9,76.5,29.89,SSW,205,7.0,15.0,67,0.00,,,0.00,meteohub,2013-08-14 19:47:00,
2013-08-14 15:57:00,88.9,75.2,29.89,SSW,196,2.0,14.0,64,0.00,,,0.00,meteohub,2013-08-14 19:57:00,
2013-08-14 16:02:00,89.1,76.3,29.89,WSW,257,12.0,17.0,66,0.00,,,0.00,meteohub,2013-08-14 20:02:00,
2013-08-14 16:07:00,88.9,76.1,29.90,SW,228,5.0,17.0,66,0.00,,,0.00,meteohub,2013-08-14 20:07:00,
2013-08-14 16:12:00,88.5,76.6,29.90,South,178,3.0,16.0,68,0.00,,,0.00,meteohub,2013-08-14 20:12:00,
2013-08-14 16:17:00,88.3,75.9,29.89,SW,233,11.0,18.0,67,0.00,,,0.00,meteohub,2013-08-14 20:17:00,
2013-08-14 16:22:00,88.5,76.6,29.89,SW,225,13.0,18.0,68,0.00,,,0.00,meteohub,2013-08-14 20:22:00,
2013-08-14 16:27:00,89.1,76.6,29.90,WSW,238,8.0,16.0,67,0.00,,,0.00,meteohub,2013-08-14 20:27:00,
2013-08-14 16:33:00,88.9,75.6,29.90,WSW,251,9.0,16.0,65,0.00,,,0.00,meteohub,2013-08-14 20:33:00,
2013-08-14 16:42:00,88.9,77.0,29.90,West,275,4.0,13.0,68,0.00,,,0.00,meteohub,2013-08-14 20:42:00,
2013-08-14 16:47:00,88.7,77.2,29.90,SW,219,6.0,12.0,69,0.00,,,0.00,meteohub,2013-08-14 20:47:00,
2013-08-14 16:57:00,88.9,77.0,29.91,WNW,303,2.0,14.0,68,0.00,,,0.00,meteohub,2013-08-14 20:57:00,
2013-08-14 17:02:00,88.0,74.7,29.91,NE,55,4.0,14.0,65,0.00,,,0.00,meteohub,2013-08-14 21:02:00,
2013-08-14 17:07:00,85.3,73.9,29.91,ENE,63,3.0,13.0,69,0.00,,,0.00,meteohub,2013-08-14 21:07:00,
2013-08-14 17:12:00,82.8,73.6,29.92,ENE,61,3.0,11.0,74,0.00,,,0.00,meteohub,2013-08-14 21:12:00,
2013-08-14 17:17:00,81.9,73.9,29.92,NNE,27,5.0,11.0,77,0.00,,,0.00,meteohub,2013-08-14 21:17:00,
2013-08-14 17:22:00,81.1,74.3,29.91,East,86,3.0,11.0,80,0.00,,,0.00,meteohub,2013-08-14 21:22:00,
2013-08-14 17:27:00,80.8,75.2,29.91,North,0,1.0,11.0,83,0.00,,,0.00,meteohub,2013-08-14 21:27:00,
2013-08-14 17:32:00,80.4,75.2,29.91,ENE,58,2.0,11.0,84,0.00,,,0.00,meteohub,2013-08-14 21:32:00,
2013-08-14 17:37:00,80.2,76.1,29.91,East,90,8.0,10.0,87,0.01,,,0.01,meteohub,2013-08-14 21:37:00,
2013-08-14 17:42:00,79.9,76.3,29.92,SSE,150,4.0,8.0,89,0.02,,,0.02,meteohub,2013-08-14 21:42:00,
2013-08-14 17:47:00,79.0,75.7,29.92,WNW,302,6.0,8.0,90,0.08,,,0.08,meteohub,2013-08-14 21:47:00,
2013-08-14 17:57:00,75.6,71.4,29.91,WNW,287,12.0,25.0,87,0.35,,,0.35,meteohub,2013-08-14 21:57:00,
2013-08-14 18:02:00,74.7,70.2,29.91,West,261,9.0,35.0,86,0.58,,,0.58,meteohub,2013-08-14 22:02:00,
2013-08-14 18:07:00,74.5,70.3,29.91,WSW,238,5.0,35.0,87,0.66,,,0.66,meteohub,2013-08-14 22:07:00,
2013-08-14 18:12:00,74.5,70.7,29.92,SW,226,4.0,30.0,88,0.81,,,0.81,meteohub,2013-08-14 22:12:00,
2013-08-14 18:17:00,74.8,71.1,29.92,SSW,203,6.0,11.0,88,0.84,,,0.84,meteohub,2013-08-14 22:17:00,
2013-08-14 18:22:00,77.2,72.7,29.91,SSW,194,4.0,14.0,86,0.84,,,0.84,meteohub,2013-08-14 22:22:00,
2013-08-14 18:27:00,77.4,72.5,29.90,South,182,2.0,17.0,85,0.87,,,0.87,meteohub,2013-08-14 22:27:00,
2013-08-14 18:32:00,77.2,72.7,29.90,South,182,1.0,17.0,86,0.89,,,0.90,meteohub,2013-08-14 22:32:00,
2013-08-14 18:42:00,78.1,74.5,29.91,South,183,2.0,3.0,89,0.87,,,0.90,meteohub,2013-08-14 22:42:00,
2013-08-14 18:47:00,79.2,75.9,29.90,SW,215,3.0,3.0,90,0.80,,,0.90,meteohub,2013-08-14 22:47:00,
2013-08-14 18:52:00,79.7,76.5,29.90,WSW,249,2.0,4.0,90,0.65,,,0.90,meteohub,2013-08-14 22:52:00,
2013-08-14 18:57:00,80.2,77.0,29.90,WSW,249,1.0,5.0,90,0.48,,,0.90,meteohub,2013-08-14 22:57:00,
2013-08-14 19:02:00,81.0,78.1,29.91,WSW,249,0.0,5.0,91,0.30,,,0.90,meteohub,2013-08-14 23:02:00,
2013-08-14 19:12:00,81.9,78.6,29.91,WNW,285,2.0,3.0,90,0.07,,,0.90,meteohub,2013-08-14 23:12:00,
2013-08-14 19:17:00,81.9,78.6,29.91,NNW,329,3.0,3.0,90,0.06,,,0.90,meteohub,2013-08-14 23:17:00,
2013-08-14 19:22:00,81.7,78.4,29.91,NNW,339,3.0,4.0,90,0.05,,,0.90,meteohub,2013-08-14 23:22:00,
2013-08-14 19:27:00,81.5,78.3,29.91,NNW,346,1.0,4.0,90,0.02,,,0.90,meteohub,2013-08-14 23:27:00,
2013-08-14 19:32:00,81.3,78.1,29.91,NNW,345,2.0,4.0,90,0.00,,,0.90,meteohub,2013-08-14 23:32:00,
2013-08-14 19:37:00,81.3,78.1,29.91,NNW,345,0.0,4.0,90,0.00,,,0.90,meteohub,2013-08-14 23:37:00,
2013-08-14 19:42:00,81.3,78.4,29.91,NNW,345,0.0,4.0,91,0.00,,,0.90,meteohub,2013-08-14 23:42:00,
2013-08-14 19:52:00,81.1,77.9,29.91,NNW,345,0.0,3.0,90,0.00,,,0.90,meteohub,2013-08-14 23:52:00,
2013-08-14 19:57:00,81.0,77.7,29.92,NNW,345,0.0,3.0,90,0.00,,,0.90,meteohub,2013-08-14 23:57:00,
2013-08-14 20:02:00,81.0,77.7,29.92,NNW,345,0.0,3.0,90,0.00,,,0.90,meteohub,2013-08-15 00:02:00,
2013-08-14 20:07:00,80.6,77.4,29.92,NNW,346,0.0,3.0,90,0.00,,,0.90,meteohub,2013-08-15 00:07:00,
2013-08-14 20:12:00,80.4,77.5,29.92,NNW,346,1.0,3.0,91,0.00,,,0.90,meteohub,2013-08-15 00:12:00,
2013-08-14 20:17:00,80.2,77.4,29.93,NNW,346,1.0,3.0,91,0.00,,,0.90,meteohub,2013-08-15 00:17:00,
2013-08-14 20:27:00,79.9,77.4,29.93,NNW,348,3.0,3.0,92,0.00,,,0.90,meteohub,2013-08-15 00:27:00,
2013-08-14 20:32:00,79.5,76.6,29.93,NNW,348,1.0,4.0,91,0.00,,,0.90,meteohub,2013-08-15 00:32:00,
2013-08-14 20:37:00,79.2,76.3,29.93,NNW,348,0.0,4.0,91,0.00,,,0.90,meteohub,2013-08-15 00:37:00,
2013-08-14 20:42:00,78.6,75.4,29.93,NNW,348,0.0,3.0,90,0.00,,,0.90,meteohub,2013-08-15 00:42:00,
2013-08-14 20:47:00,78.6,75.7,29.93,NNW,348,0.0,3.0,91,0.00,,,0.90,meteohub,2013-08-15 00:47:00,
2013-08-14 20:52:00,79.0,76.1,29.93,NNW,348,0.0,2.0,91,0.00,,,0.90,meteohub,2013-08-15 00:52:00,
2013-08-14 20:57:00,78.6,75.7,29.93,NNW,348,0.0,0.0,91,0.00,,,0.90,meteohub,2013-08-15 00:57:00,
2013-08-14 21:02:00,78.6,75.7,29.93,NNW,348,0.0,1.0,91,0.00,,,0.90,meteohub,2013-08-15 01:02:00,
2013-08-14 21:07:00,78.6,75.7,29.93,NNW,348,0.0,1.0,91,0.00,,,0.90,meteohub,2013-08-15 01:07:00,
2013-08-14 21:12:00,78.6,76.1,29.94,NNW,348,0.0,1.0,92,0.00,,,0.90,meteohub,2013-08-15 01:12:00,
2013-08-14 21:17:00,78.6,76.1,29.94,NNW,348,0.0,0.0,92,0.00,,,0.90,meteohub,2013-08-15 01:17:00,
2013-08-14 21:22:00,78.6,76.1,29.94,NNW,348,0.0,0.0,92,0.00,,,0.90,meteohub,2013-08-15 01:22:00,
2013-08-14 21:27:00,78.6,76.1,29.94,NNW,348,0.0,0.0,92,0.00,,,0.90,meteohub,2013-08-15 01:27:00,
2013-08-14 21:32:00,78.4,75.9,29.94,NNW,348,0.0,0.0,92,0.00,,,0.90,meteohub,2013-08-15 01:32:00,
2013-08-14 21:37:00,78.4,76.3,29.94,NNW,348,0.0,0.0,93,0.00,,,0.90,meteohub,2013-08-15 01:37:00,
2013-08-14 21:42:00,78.3,75.7,29.94,NNW,348,0.0,1.0,92,0.00,,,0.90,meteohub,2013-08-15 01:42:00,
2013-08-14 21:47:00,78.1,75.6,29.94,NNW,348,0.0,1.0,92,0.00,,,0.90,meteohub,2013-08-15 01:47:00,
2013-08-14 21:52:00,78.3,75.7,29.94,NNW,348,0.0,1.0,92,0.00,,,0.90,meteohub,2013-08-15 01:52:00,
2013-08-14 21:57:00,78.1,75.6,29.94,NNW,348,1.0,1.0,92,0.00,,,0.90,meteohub,2013-08-15 01:57:00,
2013-08-14 22:02:00,77.7,75.2,29.94,NNW,348,0.0,1.0,92,0.00,,,0.90,meteohub,2013-08-15 02:02:00,
2013-08-14 22:07:00,78.3,75.7,29.94,NNW,348,3.0,3.0,92,0.00,,,0.90,meteohub,2013-08-15 02:07:00,
2013-08-14 22:12:00,78.4,75.9,29.94,NNW,348,2.0,3.0,92,0.00,,,0.90,meteohub,2013-08-15 02:12:00,
2013-08-14 22:17:00,78.6,76.1,29.94,NNW,348,1.0,3.0,92,0.00,,,0.90,meteohub,2013-08-15 02:17:00,
2013-08-14 22:22:00,78.6,76.1,29.94,NNW,348,0.0,3.0,92,0.00,,,0.90,meteohub,2013-08-15 02:22:00,
2013-08-14 22:32:00,79.2,76.6,29.95,NNW,348,0.0,1.0,92,0.00,,,0.90,meteohub,2013-08-15 02:32:00,
2013-08-14 22:37:00,79.2,76.6,29.96,NNW,348,0.0,1.0,92,0.00,,,0.90,meteohub,2013-08-15 02:37:00,
2013-08-14 22:42:00,79.0,76.5,29.96,NNW,348,0.0,1.0,92,0.00,,,0.90,meteohub,2013-08-15 02:42:00,
2013-08-14 22:47:00,79.0,76.5,29.96,NNW,348,0.0,1.0,92,0.00,,,0.90,meteohub,2013-08-15 02:47:00,
2013-08-14 22:52:00,79.0,76.5,29.96,NNW,348,0.0,1.0,92,0.00,,,0.90,meteohub,2013-08-15 02:52:00,
2013-08-14 22:57:00,79.0,76.5,29.96,NNE,28,2.0,2.0,92,0.00,,,0.90,meteohub,2013-08-15 02:57:00,
2013-08-14 23:02:00,79.0,76.8,29.96,NE,50,3.0,4.0,93,0.00,,,0.90,meteohub,2013-08-15 03:02:00,
2013-08-14 23:07:00,79.2,77.0,29.97,ENE,58,2.0,4.0,93,0.00,,,0.90,meteohub,2013-08-15 03:07:00,
2013-08-14 23:12:00,79.3,77.2,29.97,ENE,59,2.0,4.0,93,0.00,,,0.90,meteohub,2013-08-15 03:12:00,
2013-08-14 23:17:00,79.5,77.4,29.97,ENE,59,0.0,4.0,93,0.00,,,0.90,meteohub,2013-08-15 03:17:00,
2013-08-14 23:22:00,79.5,77.4,29.97,ENE,59,1.0,4.0,93,0.00,,,0.90,meteohub,2013-08-15 03:22:00,
2013-08-14 23:27:00,79.9,77.7,29.97,ENE,64,1.0,3.0,93,0.00,,,0.90,meteohub,2013-08-15 03:27:00,
2013-08-14 23:32:00,80.1,77.5,29.97,ENE,64,0.0,4.0,92,0.00,,,0.90,meteohub,2013-08-15 03:32:00,
2013-08-14 23:37:00,80.1,77.5,29.97,ENE,64,1.0,4.0,92,0.00,,,0.90,meteohub,2013-08-15 03:37:00,
2013-08-14 23:42:00,79.9,77.4,29.97,ENE,64,0.0,3.0,92,0.00,,,0.90,meteohub,2013-08-15 03:42:00,
2013-08-14 23:47:00,79.3,76.8,29.97,ENE,64,0.0,3.0,92,0.00,,,0.90,meteohub,2013-08-15 03:47:00,
2013-08-14 23:52:00,79.2,76.6,29.97,ENE,64,1.0,3.0,92,0.00,,,0.90,meteohub,2013-08-15 03:52:00,
2013-08-14 23:57:00,79.2,76.6,29.97,ENE,64,1.0,3.0,92,0.00,,,0.90,meteohub,2013-08-15 03:57:00,